Location: Le Hiès Ruisseau
(43.3000°N, 0.4500°W)
Time: 12:00:13
(UTC+00:00)

Cosmos 1340 Rocket - Pass Details

Date: 28 January 2023
Orbit: 515 x 558 km, 81.2° (Epoch: 19 March)

Event Time Altitude Azimuth Distance (km) Brightness Sun altitude
Rises 17:56:08 0° 167° (SSE) 2,619 6.3 -9.0°
Reaches altitude 10° 17:58:23 10° 158° (SSE) 1,740 5.3 -9.4°
Maximum altitude 18:01:49 33° 93° (E) 890 3.4 -10.0°
Drops below altitude 10° 18:05:19 10° 29° (NNE) 1,767 5.0 -10.7°
Enters shadow 18:07:00 - 21° (NNE) 2,423 5.8 -10.9°
